| time (UTC) | temp F | wind direction | speed MPH | gust MPH | rain 1hr in | rain 24hr in | rain mn in | humidity % | barometer mb |
| 20260906220804 | 76 | 35 | 2.0 | 6.0 | 0.00 | 0.00 | 0.00 | 69 | 1016.3 |
| 20260906220304 | 76 | 41 | 3.0 | 7.0 | 0.00 | 0.00 | 0.00 | 68 | 1016.3 |
| 20260906215306 | 77 | 18 | 2.0 | 7.0 | 0.00 | 0.00 | 0.00 | 67 | 1016.3 |
| 20260906213804 | 78 | 342 | 1.0 | 9.0 | 0.00 | 0.00 | 0.00 | 65 | 1016.2 |
| 20260906212805 | 78 | 23 | 3.0 | 8.0 | 0.00 | 0.00 | 0.00 | 64 | 1016.0 |
| 20260906212306 | 78 | 338 | 2.0 | 8.0 | 0.00 | 0.00 | 0.00 | 62 | 1016.0 |
| 20260906211305 | 78 | 34 | 2.0 | 8.0 | 0.00 | 0.00 | 0.00 | 63 | 1016.0 |
| 20260906204804 | 79 | 329 | 2.0 | 6.0 | 0.00 | 0.00 | 0.00 | 63 | 1015.7 |
| 20260906203805 | 79 | 49 | 2.0 | 8.0 | 0.00 | 0.00 | 0.00 | 60 | 1015.7 |
| 20260906203305 | 79 | 50 | 2.0 | 5.0 | 0.00 | 0.00 | 0.00 | 63 | 1015.8 |
| 20260906202804 | 79 | 79 | 2.0 | 8.0 | 0.00 | 0.00 | 0.00 | 62 | 1015.7 |
| 20260906201804 | 80 | 38 | 3.0 | 10.0 | 0.00 | 0.00 | 0.00 | 62 | 1015.8 |
| 20260906201304 | 80 | 36 | 3.0 | 10.0 | 0.00 | 0.00 | 0.00 | 62 | 1015.8 |
| 20260906200805 | 80 | 42 | 4.0 | 10.0 | 0.00 | 0.00 | 0.00 | 64 | 1015.8 |
| 20260906200303 | 80 | 33 | 2.0 | 9.0 | 0.00 | 0.00 | 0.00 | 64 | 1015.8 |
| 20260906195804 | 79 | 54 | 5.0 | 9.0 | 0.00 | 0.00 | 0.00 | 61 | 1015.8 |
| 20260906195306 | 79 | 49 | 4.0 | 12.0 | 0.00 | 0.00 | 0.00 | 63 | 1015.8 |
| 20260906193305 | 79 | 32 | 4.0 | 12.0 | 0.00 | 0.00 | 0.00 | 63 | 1015.9 |
| 20260906192804 | 80 | 59 | 4.0 | 12.0 | 0.00 | 0.00 | 0.00 | 64 | 1015.9 |
| 20260906191804 | 80 | 41 | 3.0 | 7.0 | 0.00 | 0.00 | 0.00 | 63 | 1015.9 |
| 20260906184806 | 80 | 8 | 3.0 | 12.0 | 0.00 | 0.00 | 0.00 | 64 | 1016.0 |
| 20260906183805 | 79 | 51 | 5.0 | 12.0 | 0.00 | 0.00 | 0.00 | 64 | 1016.0 |
| 20260906182306 | 80 | 19 | 3.0 | 12.0 | 0.00 | 0.00 | 0.00 | 64 | 1016.0 |
| 20260906180805 | 78 | 41 | 3.0 | 9.0 | 0.00 | 0.00 | 0.00 | 65 | 1016.1 |
| 20260906173804 | 80 | 10 | 2.0 | 6.0 | 0.00 | 0.00 | 0.00 | 64 | 1016.3 |
| 20260906171805 | 79 | 42 | 2.0 | 12.0 | 0.00 | 0.00 | 0.00 | 65 | 1016.4 |
| 20260906170804 | 78 | 65 | 5.0 | 10.0 | 0.00 | 0.00 | 0.00 | 65 | 1016.4 |
| 20260906170304 | 78 | 67 | 3.0 | 7.0 | 0.00 | 0.00 | 0.00 | 66 | 1016.5 |
| 20260906164805 | 76 | 58 | 2.0 | 9.0 | 0.00 | 0.00 | 0.00 | 68 | 1016.5 |
| 20260906162803 | 77 | 93 | 3.0 | 9.0 | 0.00 | 0.00 | 0.00 | 70 | 1016.5 |
| 20260906161804 | 77 | 57 | 3.0 | 7.0 | 0.00 | 0.00 | 0.00 | 70 | 1016.6 |
| 20260906160303 | 74 | 35 | 2.0 | 7.0 | 0.00 | 0.00 | 0.00 | 72 | 1016.8 |
| 20260906155804 | 75 | 9 | 2.0 | 7.0 | 0.00 | 0.00 | 0.00 | 73 | 1016.9 |
| 20260906155306 | 75 | 56 | 3.0 | 6.0 | 0.00 | 0.00 | 0.00 | 72 | 1016.8 |
| 20260906154804 | 76 | 46 | 3.0 | 5.0 | 0.00 | 0.00 | 0.00 | 72 | 1016.9 |
| 20260906153804 | 75 | 15 | 0.0 | 8.0 | 0.00 | 0.00 | 0.00 | 74 | 1016.8 |
| 20260906144804 | 73 | 75 | 2.0 | 7.0 | 0.00 | 0.00 | 0.00 | 77 | 1016.5 |
| 20260906144304 | 72 | 19 | 2.0 | 7.0 | 0.00 | 0.00 | 0.00 | 76 | 1016.6 |
| 20260906143804 | 72 | 96 | 2.0 | 5.0 | 0.00 | 0.00 | 0.00 | 77 | 1016.5 |
| 20260906143304 | 72 | 148 | 1.0 | 9.0 | 0.00 | 0.00 | 0.00 | 76 | 1016.5 |
| 20260906142306 | 72 | 30 | 3.0 | 8.0 | 0.00 | 0.00 | 0.00 | 78 | 1016.6 |
| 20260906141804 | 72 | 27 | 2.0 | 6.0 | 0.00 | 0.00 | 0.00 | 80 | 1016.5 |
| 20260906140304 | 71 | 355 | 2.0 | 10.0 | 0.00 | 0.00 | 0.00 | 79 | 1016.5 |
| 20260906135804 | 71 | 44 | 4.0 | 9.0 | 0.00 | 0.00 | 0.00 | 80 | 1016.5 |
| 20260906133803 | 70 | 24 | 2.0 | 7.0 | 0.00 | 0.00 | 0.00 | 82 | 1016.5 |
| 20260906133304 | 70 | 20 | 1.0 | 3.0 | 0.00 | 0.00 | 0.00 | 84 | 1016.4 |
| 20260906132804 | 69 | 37 | 2.0 | 5.0 | 0.00 | 0.00 | 0.00 | 84 | 1016.4 |
| 20260906131804 | 69 | 82 | 1.0 | 8.0 | 0.00 | 0.00 | 0.00 | 84 | 1016.4 |
| 20260906131304 | 69 | 55 | 3.0 | 8.0 | 0.00 | 0.00 | 0.00 | 85 | 1016.4 |
| 20260906130304 | 68 | 69 | 2.0 | 6.0 | 0.00 | 0.00 | 0.00 | 85 | 1016.3 |
| 20260906125306 | 68 | 20 | 2.0 | 7.0 | 0.00 | 0.00 | 0.00 | 86 | 1016.4 |
| 20260906124803 | 68 | 38 | 1.0 | 6.0 | 0.00 | 0.00 | 0.00 | 86 | 1016.4 |
| 20260906124304 | 67 | 58 | 2.0 | 6.0 | 0.00 | 0.00 | 0.00 | 88 | 1016.3 |
| 20260906123304 | 66 | 133 | 1.0 | 6.0 | 0.00 | 0.00 | 0.00 | 88 | 1016.2 |
| 20260906122804 | 66 | 333 | 0.0 | 3.0 | 0.00 | 0.00 | 0.00 | 89 | 1016.1 |
| 20260906121805 | 66 | 329 | 0.0 | 3.0 | 0.00 | 0.00 | 0.00 | 90 | 1016.0 |
| 20260906115804 | 64 | 275 | 0.0 | 2.0 | 0.00 | 0.00 | 0.00 | 92 | 1015.8 |
| 20260906114804 | 63 | 240 | 0.0 | 2.0 | 0.00 | 0.00 | 0.00 | 94 | 1015.6 |
| 20260906114304 | 63 | 242 | 0.0 | 3.0 | 0.00 | 0.00 | 0.00 | 96 | 1015.7 |
| 20260906113304 | 61 | 241 | 1.0 | 3.0 | 0.00 | 0.00 | 0.00 | 97 | 1015.5 |
| 20260906111304 | 60 | 285 | 0.0 | 1.0 | 0.00 | 0.00 | 0.00 | 96 | 1015.3 |
| 20260906110304 | 60 | 285 | 0.0 | 1.0 | 0.00 | 0.00 | 0.00 | 96 | 1015.3 |
| 20260906105804 | 60 | 285 | 0.0 | 2.0 | 0.00 | 0.00 | 0.00 | 96 | 1015.2 |
| 20260906104803 | 60 | 285 | 0.0 | 2.0 | 0.00 | 0.00 | 0.00 | 96 | 1015.1 |
| 20260906104303 | 60 | 310 | 0.0 | 0.0 | 0.00 | 0.00 | 0.00 | 96 | 1015.0 |
| 20260906103804 | 60 | 310 | 0.0 | 0.0 | 0.00 | 0.00 | 0.00 | 96 | 1014.9 |
| 20260906103305 | 60 | 310 | 0.0 | 0.0 | 0.00 | 0.00 | 0.00 | 96 | 1014.7 |
| 20260906101803 | 60 | 310 | 0.0 | 0.0 | 0.00 | 0.00 | 0.00 | 95 | 1014.5 |
| 20260906100305 | 61 | 310 | 0.0 | 0.0 | 0.00 | 0.00 | 0.00 | 95 | 1014.4 |
| 20260906095807 | 61 | 310 | 0.0 | 1.0 | 0.00 | 0.00 | 0.00 | 95 | 1014.4 |
| 20260906095306 | 61 | 310 | 0.0 | 2.0 | 0.00 | 0.00 | 0.00 | 94 | 1014.3 |
| 20260906093805 | 61 | 319 | 0.0 | 1.0 | 0.00 | 0.00 | 0.00 | 94 | 1014.3 |
| 20260906093305 | 61 | 319 | 0.0 | 3.0 | 0.00 | 0.00 | 0.00 | 95 | 1014.2 |
| 20260906092805 | 61 | 319 | 0.0 | 3.0 | 0.00 | 0.00 | 0.00 | 95 | 1014.1 |
| 20260906091804 | 61 | 248 | 0.0 | 1.0 | 0.00 | 0.00 | 0.00 | 95 | 1014.1 |
| 20260906091304 | 61 | 248 | 0.0 | 1.0 | 0.00 | 0.00 | 0.00 | 94 | 1014.0 |
| 20260906090306 | 61 | 248 | 0.0 | 2.0 | 0.00 | 0.00 | 0.00 | 94 | 1013.9 |
| 20260906085805 | 61 | 248 | 0.0 | 2.0 | 0.00 | 0.00 | 0.00 | 94 | 1013.9 |
| 20260906085306 | 61 | 248 | 1.0 | 3.0 | 0.00 | 0.00 | 0.00 | 94 | 1013.8 |
| 20260906084805 | 61 | 247 | 0.0 | 3.0 | 0.00 | 0.00 | 0.00 | 94 | 1013.8 |
| 20260906084304 | 61 | 252 | 0.0 | 3.0 | 0.00 | 0.00 | 0.00 | 94 | 1013.9 |
| 20260906083805 | 61 | 258 | 1.0 | 3.0 | 0.00 | 0.00 | 0.00 | 94 | 1013.8 |
| 20260906083306 | 61 | 288 | 1.0 | 3.0 | 0.00 | 0.00 | 0.00 | 94 | 1013.8 |
| 20260906082307 | 62 | 298 | 0.0 | 0.0 | 0.00 | 0.00 | 0.00 | 95 | 1013.8 |
| 20260906081805 | 62 | 298 | 0.0 | 0.0 | 0.00 | 0.00 | 0.00 | 95 | 1013.8 |
| 20260906080805 | 61 | 298 | 0.0 | 0.0 | 0.00 | 0.00 | 0.00 | 94 | 1013.6 |
| 20260906080305 | 61 | 298 | 0.0 | 0.0 | 0.00 | 0.00 | 0.00 | 94 | 1013.5 |
| 20260906075805 | 62 | 298 | 0.0 | 0.0 | 0.00 | 0.00 | 0.00 | 94 | 1013.4 |
| 20260906075306 | 61 | 298 | 0.0 | 0.0 | 0.00 | 0.00 | 0.00 | 94 | 1013.5 |
| 20260906073804 | 61 | 298 | 0.0 | 0.0 | 0.00 | 0.00 | 0.00 | 94 | 1013.3 |
| 20260906072804 | 61 | 298 | 0.0 | 0.0 | 0.00 | 0.00 | 0.00 | 94 | 1013.3 |
| 20260906070804 | 61 | 298 | 0.0 | 0.0 | 0.00 | 0.00 | 0.00 | 94 | 1013.4 |
| 20260906065805 | 62 | 298 | 0.0 | 0.0 | 0.00 | 0.00 | 0.00 | 95 | 1013.5 |
| 20260906064804 | 62 | 298 | 0.0 | 0.0 | 0.00 | 0.00 | 0.00 | 95 | 1013.5 |
| 20260906064305 | 61 | 298 | 0.0 | 0.0 | 0.00 | 0.00 | 0.00 | 95 | 1013.6 |
| 20260906062306 | 62 | 298 | 0.0 | 0.0 | 0.00 | 0.00 | 0.00 | 95 | 1013.5 |
| 20260906061304 | 62 | 298 | 0.0 | 0.0 | 0.00 | 0.00 | 0.00 | 95 | 1013.6 |
| 20260906060805 | 62 | 298 | 0.0 | 0.0 | 0.00 | 0.00 | 0.00 | 95 | 1013.6 |
| 20260906054804 | 62 | 298 | 0.0 | 0.0 | 0.00 | 0.00 | 0.00 | 96 | 1013.8 |
| 20260906053305 | 63 | 298 | 0.0 | 0.0 | 0.00 | 0.00 | 0.00 | 96 | 1013.7 |
| 20260906052306 | 63 | 298 | 0.0 | 0.0 | 0.00 | 0.00 | 0.00 | 96 | 1013.9 |
| 20260906050305 | 63 | 298 | 0.0 | 0.0 | 0.00 | 0.00 | 0.00 | 96 | 1014.0 |
| 20260906044305 | 63 | 298 | 0.0 | 0.0 | 0.00 | 0.00 | 0.00 | 96 | 1014.1 |
| 20260906043806 | 63 | 298 | 0.0 | 0.0 | 0.00 | 0.00 | 0.00 | 96 | 1014.0 |
| 20260906043304 | 63 | 298 | 0.0 | 0.0 | 0.00 | 0.00 | 0.00 | 96 | 1014.1 |
| 20260906042805 | 63 | 298 | 0.0 | 1.0 | 0.00 | 0.00 | 0.00 | 96 | 1014.1 |
| 20260906035806 | 64 | 298 | 0.0 | 1.0 | 0.00 | 0.00 | 0.00 | 95 | 1014.0 |
| 20260906035306 | 64 | 298 | 0.0 | 1.0 | 0.00 | 0.00 | 0.00 | 95 | 1014.1 |
| 20260906034306 | 64 | 298 | 0.0 | 1.0 | 0.00 | 0.00 | 0.00 | 95 | 1014.2 |
| 20260906033305 | 64 | 298 | 0.0 | 1.0 | 0.00 | 0.00 | 0.00 | 95 | 1014.2 |
| 20260906032306 | 64 | 298 | 0.0 | 1.0 | 0.00 | 0.00 | 0.00 | 96 | 1014.1 |
| 20260906031305 | 64 | 298 | 0.0 | 1.0 | 0.00 | 0.00 | 0.00 | 95 | 1014.1 |
| 20260906030805 | 64 | 298 | 0.0 | 1.0 | 0.00 | 0.00 | 0.00 | 95 | 1014.0 |
| 20260906030305 | 64 | 298 | 0.0 | 0.0 | 0.00 | 0.00 | 0.00 | 95 | 1013.9 |
| 20260906025806 | 65 | 298 | 0.0 | 1.0 | 0.00 | 0.00 | 0.00 | 95 | 1014.0 |
| 20260906025306 | 65 | 298 | 0.0 | 1.0 | 0.00 | 0.00 | 0.00 | 95 | 1014.0 |
| 20260906024305 | 65 | 298 | 0.0 | 1.0 | 0.00 | 0.00 | 0.00 | 95 | 1014.1 |
| 20260906023805 | 65 | 298 | 0.0 | 1.0 | 0.00 | 0.00 | 0.00 | 95 | 1014.0 |
| 20260906023305 | 65 | 298 | 0.0 | 1.0 | 0.00 | 0.00 | 0.00 | 95 | 1014.0 |
| 20260906022804 | 65 | 298 | 0.0 | 1.0 | 0.00 | 0.00 | 0.00 | 95 | 1013.9 |
| 20260906022307 | 65 | 298 | 0.0 | 0.0 | 0.00 | 0.00 | 0.00 | 95 | 1014.0 |
| 20260906015306 | 65 | 298 | 0.0 | 0.0 | 0.00 | 0.00 | 0.00 | 95 | 1013.4 |
| 20260906014805 | 66 | 298 | 0.0 | 0.0 | 0.00 | 0.00 | 0.00 | 94 | 1013.3 |
| 20260906013806 | 66 | 298 | 0.0 | 0.0 | 0.00 | 0.00 | 0.00 | 94 | 1013.3 |
| 20260906013305 | 66 | 298 | 0.0 | 0.0 | 0.00 | 0.00 | 0.00 | 94 | 1013.3 |
| 20260906012804 | 66 | 298 | 0.0 | 0.0 | 0.00 | 0.00 | 0.00 | 94 | 1013.3 |
| 20260906005306 | 67 | 298 | 0.0 | 0.0 | 0.00 | 0.00 | 0.00 | 92 | 1013.1 |
| 20260906002306 | 68 | 298 | 0.0 | 0.0 | 0.00 | 0.00 | 0.00 | 91 | 1012.8 |
| 20260906001804 | 69 | 298 | 0.0 | 0.0 | 0.00 | 0.00 | 0.00 | 90 | 1012.8 |
| 20260906001305 | 69 | 298 | 0.0 | 0.0 | 0.00 | 0.00 | 0.00 | 89 | 1012.8 |
| 20260906000805 | 69 | 298 | 0.0 | 0.0 | 0.00 | 0.00 | 0.00 | 88 | 1012.7 |
| 20260905235805 | 70 | 298 | 0.0 | 0.0 | 0.00 | 0.00 | 0.00 | 86 | 1012.6 |
| 20260905235306 | 70 | 298 | 0.0 | 0.0 | 0.00 | 0.00 | 0.00 | 86 | 1012.5 |
| 20260905234305 | 71 | 298 | 0.0 | 0.0 | 0.00 | 0.00 | 0.00 | 84 | 1012.5 |
| 20260905233806 | 71 | 298 | 0.0 | 0.0 | 0.00 | 0.00 | 0.00 | 82 | 1012.4 |
| 20260905233304 | 72 | 298 | 0.0 | 0.0 | 0.00 | 0.00 | 0.00 | 82 | 1012.3 |
| 20260905232306 | 72 | 298 | 0.0 | 0.0 | 0.00 | 0.00 | 0.00 | 78 | 1012.2 |
| 20260905225804 | 75 | 298 | 0.0 | 0.0 | 0.00 | 0.00 | 0.00 | 74 | 1012.2 |
| 20260905225306 | 75 | 298 | 0.0 | 0.0 | 0.00 | 0.00 | 0.00 | 74 | 1012.2 |
| 20260905224804 | 75 | 298 | 0.0 | 0.0 | 0.00 | 0.00 | 0.00 | 72 | 1012.3 |
| 20260905224306 | 75 | 298 | 0.0 | 2.0 | 0.00 | 0.00 | 0.00 | 74 | 1012.2 |
| 20260905223805 | 76 | 299 | 0.0 | 3.0 | 0.00 | 0.00 | 0.00 | 72 | 1012.2 |
| 20260905223304 | 76 | 299 | 1.0 | 3.0 | 0.00 | 0.00 | 0.00 | 72 | 1012.2 |
| 20260905222306 | 76 | 300 | 1.0 | 3.0 | 0.00 | 0.00 | 0.00 | 71 | 1012.1 |
| 20260905221804 | 77 | 314 | 0.0 | 2.0 | 0.00 | 0.00 | 0.00 | 72 | 1012.1 |
| 20260905221304 | 77 | 324 | 1.0 | 3.0 | 0.00 | 0.00 | 0.00 | 69 | 1011.9 |